Home   Weather   Salzgitter   Past weeks

Flag for Germany Past Weather in Salzgitter, Lower Saxony, Germany — Yesterday and Last 2 Weeks

Now
50 °F

Drizzle. Overcast.


Feels Like: 44 °F
Forecast: 43 / 48 °F
Wind: 20 mph from West

Location: Braunschweig Wolfsburg

Current Time: Feb 20, 2017 at 9:01:15 pm

Latest Report: Feb 20, 2017 at 8:20 pm


Visibility: N/A

Pressure: 29.77 "Hg

Humidity: 100%

Dew Point: 50 °F

Location of SalzgitterLocation

Past Weather in Salzgitter — Graph

°F

Salzgitter Temperature Yesterday

Maximum temperature yesterday: 43 °F (at 12:20 pm)
Minimum temperature yesterday: 37 °F (at 7:50 am)
Average temperature yesterday: 41 °F

High & Low Weather Summary for the Past Weeks

 TemperatureHumidityPressure
High52 °F (Feb 15, 3:20 pm)100% (Feb 6, 7:20 am)30.60 "Hg (Feb 6, 7:20 am)
Low21 °F (Feb 14, 7:20 am)40% (Feb 15, 1:20 pm)29.80 "Hg (Feb 20, 4:20 pm)
Average35 °F82%30.32 "Hg
* Reported Feb 6 7:20 am — Feb 20 7:50 pm, Salzgitter, Weather by CustomWeather, © 2017

Note: Actual official high and low records may vary slightly from our data, if they occured in-between our weather recording intervals... More about our weather records

Advertising

Salzgitter Weather History for the Previous 24 Hours

Scroll right to see more
 ConditionsComfort  
Time TempWeatherWind HumidityBarometerVisibility
7:50 pm
Mon, Feb 20
48 °FDrizzle. Low clouds.22 mph100%29.80 "HgN/A
7:20 pm48 °FDrizzle. Low clouds.21 mph100%29.80 "Hg6 mi
6:20 pm48 °FDrizzle. Mostly cloudy.18 mph100%29.80 "Hg6 mi
5:20 pm48 °FDrizzle. Fog.18 mph100%29.80 "Hg3 mi
4:20 pm48 °FDrizzle. Overcast.15 mph100%29.80 "HgN/A
3:50 pm48 °FMore clouds than sun.18 mph100%29.83 "Hg6 mi
3:20 pm46 °FCloudy.13 mph100%29.83 "Hg4 mi
2:50 pm46 °FDrizzle. Fog.14 mph100%29.86 "Hg2 mi
2:20 pm46 °FDrizzle. Fog.13 mph100%29.86 "Hg2 mi
1:20 pm46 °FDrizzle. Fog.16 mph100%29.89 "Hg2 mi
12:20 pm46 °FDrizzle. Overcast.18 mph93%29.92 "Hg4 mi
11:50 am46 °FOvercast.17 mph93%29.92 "HgN/A
11:20 am46 °FOvercast.15 mph93%29.92 "HgN/A
10:20 am45 °FOvercast.14 mph93%29.95 "HgN/A
9:50 am45 °FOvercast.15 mph93%29.95 "HgN/A
9:20 am45 °FOvercast.15 mph93%29.95 "HgN/A
8:20 am43 °FOvercast.13 mph100%29.98 "HgN/A
7:50 am43 °FOvercast.13 mph100%30.01 "Hg6 mi
7:20 am43 °FOvercast.12 mph100%30.01 "Hg4 mi
6:50 am43 °FOvercast.10 mph100%30.01 "Hg4 mi
Weather by CustomWeather, © 2017

See weather overviewHow to use our weather pages